TimeCST,TemperatureF,Dew PointF,Humidity,Sea Level PressureIn,VisibilityMPH,Wind Direction,Wind SpeedMPH,Gust SpeedMPH,PrecipitationIn,Events,Conditions,WindDirDegrees,DateUTC
12:53 AM,48.0,30.9,52,29.83,10.0,SW,4.6,-,N/A,,Clear,220,2012-12-16 06:53:00
1:53 AM,43.0,30.0,60,29.85,10.0,NNW,4.6,-,N/A,,Clear,340,2012-12-16 07:53:00
2:53 AM,39.9,28.9,65,29.85,10.0,WNW,3.5,-,N/A,,Clear,290,2012-12-16 08:53:00
3:53 AM,39.0,28.0,65,29.86,10.0,SW,8.1,-,N/A,,Clear,230,2012-12-16 09:53:00
4:53 AM,39.9,28.9,65,29.85,10.0,SSW,10.4,-,N/A,,Clear,200,2012-12-16 10:53:00
5:53 AM,39.9,28.9,65,29.86,10.0,SW,5.8,-,N/A,,Clear,230,2012-12-16 11:53:00
6:53 AM,37.0,28.0,70,29.87,10.0,Calm,Calm,-,N/A,,Clear,0,2012-12-16 12:53:00
7:53 AM,42.1,28.9,60,29.87,10.0,West,15.0,-,N/A,,Clear,280,2012-12-16 13:53:00
8:53 AM,50.0,30.9,48,29.86,10.0,WSW,15.0,-,N/A,,Clear,250,2012-12-16 14:53:00
9:53 AM,55.9,32.0,40,29.86,10.0,WSW,23.0,32.2,N/A,,Clear,250,2012-12-16 15:53:00
10:53 AM,57.9,30.9,36,29.86,-9999.0,West,19.6,28.8,N/A,,Clear,260,2012-12-16 16:53:00
11:53 AM,61.0,28.9,30,29.84,-9999.0,West,24.2,34.5,N/A,,Clear,260,2012-12-16 17:53:00
12:53 PM,62.1,28.0,28,29.80,-9999.0,West,24.2,35.7,N/A,,Clear,260,2012-12-16 18:53:00
1:53 PM,63.0,28.0,27,29.77,-9999.0,WSW,26.5,40.3,N/A,,Clear,250,2012-12-16 19:53:00
2:53 PM,64.0,28.0,26,29.76,-9999.0,West,23.0,38.0,N/A,,Clear,270,2012-12-16 20:53:00
3:53 PM,64.0,26.1,24,29.75,-9999.0,West,27.6,39.1,N/A,,Clear,260,2012-12-16 21:53:00
4:53 PM,61.0,28.0,29,29.77,-9999.0,West,24.2,36.8,N/A,,Clear,270,2012-12-16 22:53:00
5:53 PM,59.0,28.9,32,29.81,-9999.0,West,27.6,38.0,N/A,,Clear,270,2012-12-16 23:53:00
6:53 PM,55.9,30.0,37,29.83,-9999.0,West,18.4,28.8,N/A,,Clear,270,2012-12-17 00:53:00
7:53 PM,54.0,30.9,41,29.86,-9999.0,West,16.1,-,N/A,,Clear,260,2012-12-17 01:53:00
8:53 PM,53.1,32.0,45,29.88,-9999.0,West,18.4,-,N/A,,Clear,270,2012-12-17 02:53:00
9:53 PM,50.0,32.0,50,29.89,-9999.0,West,11.5,-,N/A,,Clear,270,2012-12-17 03:53:00
10:53 PM,50.0,32.0,50,29.91,-9999.0,West,16.1,-,N/A,,Clear,270,2012-12-17 04:53:00
11:53 PM,48.9,30.0,48,29.93,-9999.0,West,15.0,-,N/A,,Clear,270,2012-12-17 05:53:00